sat.trackr.live / text

‹ back to catalog

STARLINK-37007

NORAD 68302 · 2026-057J

PAYLOAD ACTIVE UNKNOWN

§ Identity

Operator
Country
US
Launch date
2026-03-20
Launch site
AFWTR
Launch vehicle
Mass (kg)
RCS (m²)

Purposes: comms

External: N2YO · Heavens-Above · Gunter

§ Orbital elements

Epoch: 2026-05-24T21:09:21.752064Z

Period
91.42 min
Inclination
97.2844°
Eccentricity
0.0001098
Mean motion
15.75172050 rev/d
Perigee alt
343.4 km
Apogee alt
344.9 km
Semi-major
6,722.3 km
B*
1.7753e-3
RAAN
271.1809°
Arg perigee
74.5827°
Mean anomaly
285.5559°
Rev number
1,028

§ Raw data

STARLINK-370071 68302U 26057J   26144.88150176  .00273105  00000+0  17753-2 0  99942 68302  97.2844 271.1809 0001098  74.5827 285.5559 15.75172050 10287

JSON: /api/v1/satellites/68302 · /tle

For live sub-satellite position, see the globe view (requires WebGL).

§ Visibility from observer

Set your observer location to see the next 7 days of passes ≥ 10°. The values pass through the URL so the page stays shareable.

No JS? Fill the form by hand. The geolocation button needs JavaScript.